Probability
61 61 65 71 58 58 58 58 48 55 55 45 29 19 19 16 26 29 23 52 42 39 29 35 35 35 35 39 35 35 29 29 32 35 32 26 26 29 26 29 23 19 19
68 68 65 68 61 71 58 61 58 58 58 52 42 39 32 32 26 26 26 26 35 42 29 35 29 29 39 35 29 35 29 23 26 26 32 32 29 26 26 26 23 19 16
65 68 71 71 74 68 61 65 58 58 55 52 45 32 35 35 29 32 26 23 19 32 39 42 42 35 39 35 29 29 26 19 23 26 26 29 23 19 23 16 19 19 19
58 68 68 71 68 65 61 68 65 52 55 45 42 39 39 35 35 29 23 26 19 19 29 39 35 42 39 35 29 26 26 23 16 19 23 23 16 19 16 13 13 13 13
55 71 68 61 52 65 65 48 61 52 48 35 29 35 39 35 29 26 29 26 19 29 26 29 32 35 35 32 29 26 26 19 23 19 23 19 16 16 16 13 13 13 6
45 58 55 61 52 55 58 65 61 65 58 39 19 19 32 35 29 32 23 26 29 26 23 23 23 26 32 29 26 29 29 23 26 26 19 23 19 16 13 10 13 10 13
52 61 52 48 52 52 55 55 48 45 39 42 32 32 32 32 29 26 26 23 23 19 23 26 26 23 23 26 32 29 29 29 32 32 29 26 19 16 16 13 10 10 10
52 32 55 48 48 55 52 52 55 48 45 42 39 32 29 26 29 23 23 23 19 26 23 26 26 29 32 23 19 16 23 32 29 29 32 29 26 19 23 23 23 6 6
48 52 48 48 45 42 45 48 55 48 39 42 42 32 23 23 26 32 26 19 26 32 29 26 26 26 29 29 29 19 16 16 23 26 26 26 19 19 23 23 23 13 13
42 45 42 42 48 48 52 35 42 45 42 39 39 35 35 32 23 26 26 23 26 23 32 16 16 23 26 26 26 19 13 10 13 16 23 23 23 19 16 16 10 13 16
39 39 42 45 48 48 45 42 42 45 35 35 39 32 39 39 32 23 19 23 19 23 29 26 26 26 26 26 26 23 6 3 3 10 10 13 16 16 16 16 16 16 10
42 42 42 52 48 48 45 39 42 32 42 45 39 35 32 35 26 19 19 19 19 23 26 32 26 26 23 26 23 10 3 3 0 0 0 6 6 13 16 16 16 13 13
39 48 39 52 52 48 48 48 45 35 29 32 32 32 32 35 39 32 26 16 19 19 23 23 23 23 19 23 13 0 3 0 0 0 0 0 0 3 3 13 13 13 13
39 45 48 45 48 45 39 48 45 42 32 29 26 29 32 26 29 23 19 23 10 16 19 16 16 16 19 23 10 0 0 0 0 0 0 0 0 0 0 0 6 3 6
39 45 48 45 42 42 45 45 48 48 45 35 29 29 29 26 19 23 23 23 16 6 10 23 16 23 16 23 10 3 13 3 0 0 0 0 0 0 0 0 0 0 0
52 52 45 42 42 39 42 39 39 39 39 42 39 29 29 29 23 19 19 16 19 13 6 23 16 19 23 13 10 10 19 0 0 0 0 0 0 0 0 0 0 0 0
48 48 48 48 52 45 42 45 32 42 29 29 26 26 26 29 29 19 23 23 23 13 6 13 16 26 16 16 10 13 10 6 3 0 0 0 0 0 0 0 0 0 0
52 52 48 42 42 45 45 39 35 29 29 29 26 29 32 19 19 19 19 23 26 19 16 13 13 19 16 13 16 13 10 6 10 0 0 0 0 0 0 0 0 0 0
48 45 45 42 42 42 39 42 35 39 32 35 29 29 32 26 19 23 23 16 16 10 19 19 16 19 23 16 16 13 6 10 6 3 0 0 0 0 0 0 0 0 0
45 45 45 45 45 39 35 39 35 39 39 39 26 26 29 26 23 23 19 19 16 13 13 13 13 13 16 19 19 10 6 10 10 3 0 0 0 0 0 0 0 0 0
39 42 42 39 32 26 23 32 32 32 32 35 32 23 29 23 16 13 6 16 16 13 13 13 13 10 10 13 13 13 3 10 10 3 6 3 0 0 0 0 0 0 0
42 45 42 39 32 23 16 16 23 26 32 35 39 32 23 16 6 6 3 3 3 13 13 13 13 6 6 3 6 3 6 10 10 13 3 0 0 6 6 3 0 0 0
39 45 45 42 35 32 19 13 10 23 26 35 39 32 23 13 13 13 6 0 0 0 3 10 6 3 6 6 6 3 3 6 0 6 0 3 3 6 6 0 0 0 0
42 42 39 35 35 29 13 6 6 10 26 35 35 29 29 23 16 16 13 10 6 3 3 0 0 0 3 10 10 6 6 3 3 6 10 3 3 3 10 6 0 0 0
42 42 35 32 32 29 6 3 0 16 32 32 35 29 26 26 16 3 10 13 13 3 3 0 0 0 0 0 3 3 0 0 0 3 3 6 3 3 3 3 0 0 0
39 35 32 32 35 26 6 0 0 16 29 32 32 26 19 16 3 0 6 13 16 6 3 0 0 0 0 0 0 0 0 0 0 0 0 3 6 3 3 3 6 0 0
Height
5869 5868 5868 5868 5867 5868 5868 5868 5868 5868 5868 5867 5867 5867 5867 5866 5866 5865 5864 5864 5864 5864 5864 5865 5866 5867 5867 5868 5869 5870 5870 5871 5871 5872 5872 5873 5873 5874 5874 5874 5875 5875 5876
5869 5868 5867 5867 5867 5867 5867 5867 5867 5867 5867 5867 5867 5866 5865 5865 5864 5864 5863 5863 5863 5863 5864 5864 5864 5865 5866 5867 5867 5868 5868 5869 5869 5869 5870 5870 5871 5871 5871 5872 5872 5873 5873
5868 5868 5867 5866 5866 5866 5866 5866 5866 5866 5866 5866 5866 5865 5865 5864 5864 5863 5863 5862 5862 5862 5863 5863 5863 5863 5864 5865 5865 5866 5866 5866 5866 5867 5867 5868 5868 5868 5868 5869 5869 5870 5870
5868 5867 5866 5866 5865 5865 5865 5865 5865 5865 5865 5865 5864 5864 5864 5864 5863 5862 5862 5862 5861 5861 5861 5861 5861 5862 5862 5862 5863 5863 5863 5864 5864 5864 5865 5865 5865 5865 5866 5866 5866 5866 5867
5867 5866 5865 5864 5864 5864 5864 5864 5864 5864 5863 5863 5863 5863 5862 5862 5862 5861 5861 5860 5860 5860 5860 5860 5860 5860 5860 5861 5861 5861 5861 5862 5862 5862 5862 5862 5862 5862 5862 5863 5862 5862 5863
5865 5865 5864 5863 5862 5862 5862 5862 5862 5862 5862 5862 5861 5861 5861 5860 5860 5860 5860 5859 5859 5859 5859 5859 5859 5859 5859 5859 5859 5859 5860 5859 5859 5859 5859 5859 5859 5859 5859 5859 5859 5858 5858
5864 5863 5862 5862 5861 5861 5861 5861 5861 5860 5860 5860 5860 5859 5859 5859 5858 5858 5858 5858 5858 5858 5858 5858 5857 5857 5857 5857 5857 5857 5857 5857 5857 5857 5856 5856 5856 5855 5855 5855 5854 5854 5854
5862 5862 5861 5860 5860 5859 5859 5859 5859 5858 5858 5858 5858 5857 5857 5857 5856 5856 5855 5856 5856 5856 5856 5856 5856 5855 5855 5855 5855 5855 5855 5854 5854 5854 5854 5853 5853 5852 5851 5851 5850 5850 5850
5860 5860 5859 5859 5858 5857 5857 5857 5856 5856 5856 5856 5855 5855 5855 5855 5855 5855 5854 5854 5854 5854 5853 5853 5853 5853 5853 5853 5853 5853 5852 5852 5852 5851 5850 5850 5849 5849 5848 5847 5847 5846 5846
5858 5858 5857 5856 5856 5855 5854 5854 5854 5854 5853 5853 5853 5852 5852 5852 5852 5852 5852 5852 5851 5851 5851 5850 5851 5851 5851 5850 5850 5850 5849 5849 5848 5848 5847 5846 5846 5845 5845 5844 5843 5843 5843
5855 5855 5854 5854 5853 5852 5852 5851 5851 5851 5851 5850 5850 5849 5849 5849 5849 5849 5849 5848 5848 5848 5847 5847 5848 5848 5848 5848 5847 5846 5846 5845 5845 5844 5844 5843 5842 5841 5841 5840 5839 5839 5839
5852 5852 5851 5851 5850 5850 5849 5848 5848 5847 5847 5847 5846 5846 5846 5846 5846 5845 5845 5845 5845 5844 5844 5844 5844 5844 5844 5844 5843 5843 5842 5841 5841 5840 5840 5839 5838 5837 5837 5836 5836 5835 5835
5849 5848 5848 5847 5846 5846 5846 5845 5844 5844 5843 5843 5843 5842 5842 5842 5842 5842 5841 5841 5840 5841 5840 5840 5840 5839 5838 5839 5839 5838 5838 5837 5837 5836 5835 5834 5833 5833 5832 5832 5832 5831 5831
5844 5844 5843 5843 5843 5842 5842 5841 5841 5840 5839 5839 5839 5838 5838 5838 5838 5837 5837 5836 5836 5836 5836 5836 5835 5835 5835 5834 5834 5833 5833 5832 5832 5831 5830 5829 5829 5828 5828 5827 5827 5827 5826
5840 5839 5839 5839 5838 5838 5838 5837 5836 5836 5835 5835 5835 5834 5834 5833 5833 5833 5832 5831 5831 5831 5832 5831 5831 5831 5830 5829 5829 5828 5828 5827 5826 5826 5825 5824 5824 5823 5823 5823 5822 5822 5822
5835 5835 5835 5834 5834 5833 5833 5832 5832 5831 5831 5830 5830 5829 5829 5828 5828 5828 5827 5826 5826 5826 5826 5826 5826 5825 5825 5824 5824 5823 5822 5821 5821 5820 5819 5819 5818 5818 5818 5818 5817 5817 5817
5830 5830 5829 5829 5828 5828 5827 5827 5826 5826 5825 5824 5824 5824 5823 5823 5823 5822 5822 5821 5820 5820 5821 5821 5820 5819 5819 5818 5818 5817 5816 5815 5815 5815 5814 5813 5813 5812 5812 5812 5812 5812 5811
5824 5824 5824 5823 5823 5822 5822 5821 5820 5820 5819 5819 5818 5818 5818 5817 5817 5816 5816 5815 5815 5815 5815 5815 5814 5813 5813 5812 5811 5811 5811 5810 5809 5809 5808 5807 5807 5807 5806 5806 5806 5805 5805
5818 5818 5817 5817 5817 5816 5816 5815 5814 5814 5813 5813 5812 5811 5811 5811 5810 5809 5809 5809 5809 5809 5808 5808 5808 5807 5807 5806 5805 5805 5804 5803 5803 5803 5802 5801 5801 5801 5800 5800 5799 5799 5799
5812 5811 5811 5811 5810 5810 5809 5808 5808 5807 5807 5806 5806 5805 5804 5804 5803 5802 5802 5802 5802 5802 5801 5801 5801 5800 5800 5799 5799 5798 5798 5797 5797 5796 5796 5795 5795 5794 5794 5793 5793 5792 5791
5805 5805 5805 5804 5804 5803 5802 5802 5801 5801 5800 5800 5799 5798 5797 5796 5796 5795 5795 5794 5794 5794 5793 5793 5793 5793 5793 5792 5792 5791 5791 5791 5790 5789 5789 5789 5788 5788 5787 5786 5785 5785 5784
5798 5798 5798 5797 5797 5796 5796 5795 5794 5794 5794 5793 5792 5791 5790 5789 5788 5787 5787 5787 5787 5786 5786 5786 5786 5786 5786 5785 5784 5783 5783 5783 5783 5783 5782 5781 5780 5780 5779 5778 5777 5777 5776
5791 5790 5790 5790 5790 5789 5789 5788 5787 5787 5787 5786 5785 5784 5783 5782 5781 5780 5779 5779 5778 5778 5778 5778 5778 5778 5777 5777 5776 5776 5776 5775 5775 5774 5774 5773 5772 5771 5771 5770 5769 5769 5768
5783 5783 5783 5783 5783 5782 5781 5780 5780 5779 5779 5779 5778 5777 5776 5775 5774 5773 5772 5772 5771 5770 5770 5770 5770 5770 5769 5769 5768 5768 5768 5768 5768 5767 5766 5765 5764 5764 5763 5762 5761 5760 5759
5776 5776 5776 5776 5775 5774 5774 5773 5772 5772 5772 5771 5771 5770 5769 5768 5767 5765 5765 5764 5764 5763 5762 5761 5761 5761 5761 5761 5760 5761 5760 5760 5760 5759 5758 5758 5757 5756 5756 5754 5753 5752 5751
5768 5768 5768 5768 5767 5767 5766 5766 5765 5765 5765 5764 5763 5763 5761 5760 5759 5758 5757 5757 5756 5755 5754 5754 5753 5753 5753 5753 5752 5752 5752 5752 5752 5752 5751 5749 5749 5748 5748 5746 5745 5743 5742
Wind_Speed
6 6 6 4 4 4 4 4 4 4 5 5 5 6 6 6 6 6 6 5 6 6 5 5 6 6 7 7 8 9 8 9 9 10 10 11 12 12 12 12 11 11 11
7 6 7 6 5 5 5 5 5 5 5 6 6 6 6 6 7 7 7 5 6 7 6 6 7 7 8 9 9 9 9 9 10 10 11 11 12 12 11 12 12 12 12
7 7 7 7 7 6 6 6 6 6 6 6 7 7 6 7 7 7 7 7 6 7 7 5 6 8 9 9 9 9 10 11 11 11 11 11 11 11 11 12 13 14 13
8 8 7 7 8 7 7 7 7 7 7 8 8 8 7 7 7 8 8 8 6 6 7 6 6 7 8 8 9 10 9 9 11 11 11 12 11 11 12 13 13 15 15
9 9 8 8 8 8 7 7 8 8 8 8 9 9 8 8 8 8 8 8 8 8 7 7 7 6 6 7 9 9 9 10 10 11 12 12 13 13 13 14 14 15 16
10 11 10 10 9 8 8 8 8 8 9 9 9 9 9 9 9 9 9 8 9 9 9 9 9 8 7 7 8 8 9 10 11 11 12 13 13 14 14 15 16 16 16
12 12 11 10 9 9 9 9 10 9 9 9 9 10 10 10 10 10 9 8 9 9 10 9 9 9 9 10 9 9 10 11 11 11 12 12 13 14 15 16 16 16 16
12 12 12 10 10 10 10 10 10 10 10 10 10 10 10 10 10 11 10 9 9 10 9 9 10 9 10 11 11 11 12 12 11 12 12 12 13 14 15 15 15 15 15
13 13 12 12 11 11 11 11 11 11 11 11 11 11 10 10 10 10 11 11 11 10 10 10 10 10 11 11 12 12 13 13 13 14 14 13 13 14 14 14 15 15 14
14 14 14 13 12 11 11 11 11 12 12 12 12 12 11 11 11 11 11 12 12 12 12 12 11 12 12 12 13 13 14 14 15 15 14 15 15 15 15 14 14 15 15
15 15 14 14 13 12 12 12 12 13 13 13 12 12 12 12 12 12 12 13 13 13 13 12 13 14 14 14 14 14 15 16 16 16 16 16 16 15 15 15 15 15 15
16 16 15 15 14 13 13 13 13 14 14 14 13 13 13 13 13 14 14 14 15 15 15 15 15 16 15 15 16 16 16 17 17 17 17 17 17 17 16 16 16 16 16
17 17 17 16 16 15 14 14 14 14 15 15 15 15 15 15 15 16 16 16 15 16 16 17 17 17 16 17 17 17 17 18 18 18 19 18 17 17 17 17 16 16 16
19 18 17 17 17 16 15 15 15 15 16 16 16 16 16 16 17 17 17 17 17 17 17 18 18 18 18 18 18 18 19 19 19 19 20 19 18 18 17 18 18 18 18
20 19 19 19 19 18 17 17 17 17 17 18 18 18 18 18 18 18 18 18 18 18 19 19 19 19 19 19 19 20 20 20 19 19 20 19 19 18 18 18 18 19 18
21 21 21 20 20 20 19 19 19 20 20 19 19 20 20 20 20 20 20 20 19 19 20 20 20 20 20 20 20 21 21 20 20 20 20 19 19 19 19 19 19 19 20
22 21 22 22 22 21 21 21 21 21 21 21 21 21 21 21 21 22 22 22 21 21 20 20 21 21 21 21 21 21 22 20 20 20 20 20 20 20 21 21 20 20 20
23 24 24 24 23 23 23 23 23 22 22 22 22 22 22 23 23 23 23 23 22 23 22 22 22 23 23 22 22 22 22 22 22 21 20 20 20 20 21 21 21 21 21
24 24 25 25 25 24 24 24 23 23 23 22 23 23 23 24 24 25 24 24 24 24 24 24 23 23 23 23 23 22 22 22 22 22 22 21 21 21 21 22 22 22 22
26 26 26 26 25 25 24 24 24 24 23 23 24 25 25 25 26 26 26 26 26 25 25 24 24 24 24 24 24 23 23 23 23 23 23 22 22 23 23 22 23 23 24
27 27 26 26 26 25 25 24 24 24 24 24 25 26 26 26 26 26 26 27 26 26 26 25 25 25 25 24 25 25 25 24 24 24 24 23 23 24 24 23 23 23 24
27 27 27 26 26 26 26 25 26 25 25 25 26 26 27 27 28 27 27 27 27 27 27 27 27 26 26 26 26 26 25 25 25 25 25 24 24 24 25 24 24 24 24
27 27 26 26 27 27 27 27 27 27 26 26 26 26 26 27 27 28 27 27 27 27 28 27 27 27 28 28 27 26 25 25 25 25 26 25 25 25 25 25 25 25 25
28 27 26 26 27 27 27 27 27 27 26 26 26 27 27 27 27 28 28 28 27 27 27 27 28 28 28 27 27 27 26 26 26 25 26 25 25 25 26 26 26 25 26
28 28 27 27 27 27 26 26 26 26 27 27 27 27 27 27 27 28 28 28 28 28 27 27 27 27 27 27 27 28 27 26 26 26 26 26 25 26 26 26 26 25 25
28 28 27 26 26 26 26 26 27 27 27 27 27 28 28 28 28 28 28 28 28 28 27 27 27 26 27 27 27 28 28 27 26 26 26 26 25 25 25 26 25 26 26
Wind_Direction
320 312 311 301 293 282 269 266 264 267 275 286 296 304 305 301 299 311 309 301 298 289 287 276 270 269 264 263 260 261 264 264 262 262 263 262 267 272 267 264 264 260 261
322 320 317 312 307 293 273 272 272 273 277 284 293 303 308 310 302 313 312 305 298 297 292 285 274 266 266 266 264 268 271 265 261 262 264 264 269 267 268 263 264 263 265
324 322 318 313 311 305 287 280 280 277 281 283 289 295 301 307 311 312 308 304 301 293 293 287 276 267 263 265 267 269 270 268 266 267 268 266 270 269 268 270 266 266 268
317 317 315 311 310 308 295 290 290 290 289 287 291 292 296 305 308 309 309 303 304 299 291 292 289 275 265 264 265 267 271 276 275 271 269 269 271 273 275 274 269 266 267
310 310 312 309 308 303 296 293 293 292 293 293 292 292 294 301 304 307 309 309 305 302 303 299 296 284 275 266 266 271 278 281 280 274 274 272 272 277 277 275 272 269 267
303 304 302 301 298 299 295 293 294 292 293 297 294 294 297 298 299 302 305 308 308 307 311 306 300 294 290 283 280 276 280 287 285 280 277 276 277 280 279 279 275 272 270
299 301 299 299 298 295 290 291 293 292 295 297 299 298 296 294 294 295 299 302 303 303 305 306 304 302 300 299 294 292 291 292 289 286 285 284 282 281 280 281 278 273 270
301 301 297 292 293 291 289 290 289 288 293 296 298 297 294 292 292 293 293 297 299 299 300 301 300 299 301 301 299 298 296 297 296 294 293 289 286 285 286 284 282 277 272
297 298 298 292 292 289 288 287 287 287 290 293 292 290 289 289 289 288 289 294 297 297 295 296 295 291 295 299 302 302 297 297 298 299 295 293 292 290 290 288 284 281 278
296 293 295 295 291 293 292 289 286 285 286 287 287 286 286 287 283 284 287 290 291 292 292 290 293 293 294 294 294 299 299 299 297 296 295 295 294 292 291 288 286 286 284
295 292 291 294 294 294 296 293 289 285 286 286 288 289 289 286 284 283 285 286 287 287 287 286 289 291 291 291 291 294 295 298 298 297 296 295 294 293 292 291 290 288 284
293 294 292 288 287 291 293 293 290 286 285 286 286 286 287 286 285 284 283 283 283 283 284 284 286 286 287 291 292 294 293 294 293 294 296 295 292 290 289 288 287 286 282
289 290 289 287 285 287 289 289 289 287 283 283 283 282 283 284 286 287 286 283 281 280 281 283 285 287 287 290 291 294 293 292 293 291 293 295 290 288 285 285 287 286 283
284 286 286 286 286 286 285 285 286 286 283 281 282 282 282 283 285 286 287 286 281 280 282 283 284 287 287 287 288 290 291 292 291 290 291 293 288 285 284 283 283 282 282
281 283 283 284 285 284 283 282 283 284 283 280 281 282 284 285 285 284 286 287 285 283 282 282 284 285 287 288 287 287 287 289 289 289 288 288 286 284 282 284 283 280 281
280 282 282 283 283 281 282 283 283 281 281 280 279 279 281 282 283 284 285 287 285 285 283 282 283 285 285 287 287 288 287 285 284 286 284 282 282 282 281 282 284 283 281
279 280 280 281 281 281 280 281 281 280 281 281 279 278 278 280 280 282 284 283 283 284 285 285 284 284 285 287 286 285 287 287 286 286 282 279 280 282 281 279 280 283 281
278 280 280 280 280 281 281 280 280 279 280 280 278 277 277 278 279 281 282 281 281 282 283 284 284 283 284 285 286 285 286 286 285 288 285 281 279 280 281 280 279 281 281
278 280 280 280 280 281 281 280 279 279 280 279 277 278 279 278 279 280 279 279 280 282 283 283 283 281 282 283 284 286 286 286 286 286 287 284 282 281 281 281 281 281 281
277 279 280 279 280 281 280 279 278 279 280 279 278 280 281 281 280 278 278 278 280 281 283 283 283 281 281 280 282 283 285 286 286 286 287 285 283 283 282 281 281 281 281
276 277 278 279 280 280 280 278 278 278 280 280 280 280 281 281 281 279 278 277 278 279 281 282 282 282 281 279 280 281 283 283 284 285 285 284 282 282 282 281 281 282 282
275 277 277 277 278 279 279 278 278 278 280 282 283 282 282 282 281 281 280 278 278 278 280 281 282 282 282 281 280 280 281 282 283 284 284 284 283 281 281 281 281 281 281
274 277 279 278 278 278 279 277 278 278 280 281 282 283 283 283 282 282 282 281 280 280 281 280 280 281 282 283 282 281 281 283 283 282 283 283 283 282 281 280 281 281 282
273 275 277 277 278 279 279 277 277 278 279 280 281 283 284 285 285 283 284 284 282 281 282 281 280 280 280 281 281 282 282 283 284 283 282 282 281 281 282 281 282 282 280
272 273 275 275 277 278 279 278 277 277 279 279 281 283 283 285 286 285 284 284 285 283 282 281 281 280 279 279 280 281 282 283 283 283 283 282 281 282 284 282 281 281 280
273 275 275 275 276 276 277 278 277 277 279 280 281 283 284 285 286 286 285 285 285 285 283 280 280 280 279 279 279 279 279 280 280 282 284 285 284 284 284 283 281 280 280